Regional Weather Roundup
Issued by NWS Northern Indiana

Home | Current Version | Previous Version | Graphics & Text | Print | Product List | Glossary On
Versions: 1 2 3 4 5 6 7 8 9 10 11 12 13 14 15 16 17 18 19 20 21 22 23 24 25 26 27 28 29 30 31 32 33 34 35 36 37 38 39 40 41 42 43 44 45 46 47 48 49 50
000
ASUS43 KIWX 152010
RWRIWX

KIWX WEATHER ROUNDUP
NATIONAL WEATHER SERVICE NORTHERN INDIANA
300 PM EST MON JAN 15 2018

NOTE: "FAIR" INDICATES FEW OR NO CLOUDS BELOW 12,000 FEET WITH NO
SIGNIFICANT WEATHER AND/OR OBSTRUCTIONS TO VISIBILITY.

* THESE STATIONS ARE NOT UNDER NWS QUALITY CONTROL. THEY ALSO MAY NOT
  REPORT WEATHER SUCH AS PRECIPITATION OR FOG.

INZ001>027-152100-
NORTHERN INDIANA

CITY           SKY/WX    TMP DP  RH WIND       PRES   REMARKS
GARY*          LGT SNOW  19  14  79 W17       30.17R WCI   4
VALPARAISO     CLOUDY    22  16  78 SW12      30.15R HAZE    WCI  10
MICHIGAN CITY* LGT SNOW  25  19  80 S5        30.15R WCI  19
LAPORTE*       LGT SNOW  23  20  86 SW5       30.14S WCI  17
KNOX*          CLOUDY    25  21  86 SW6       30.15R WCI  18
SOUTH BEND     LGT SNOW  22  18  85 S5        30.14F FOG     WCI  16
ELKHART*       LGT SNOW  21  18  86 CALM      30.15S
GOSHEN         LGT SNOW  22  17  81 S9        30.15S WCI  12
MONTICELLO*    FLURRIES  18  12  79 W15       30.19R WCI   3
LOGANSPORT*    LGT SNOW  25  21  86 W15       30.17R WCI  12
ROCHESTER*     LGT SNOW  28  25  86 SW7       30.16R WCI  21
WARSAW*        LGT SNOW  23  19  86 SW5       30.15R WCI  17
AUBURN*        LGT SNOW  25  19  80 S5        30.17S WCI  19
FORT WAYNE     LGT SNOW  23  20  88 SW12      30.17S FOG     WCI  12
HUNTINGTON*    LGT SNOW  22  20  92 SW8       30.16F WCI  13
PERU/GRISSOM   LGT SNOW  24  24 100 SW13      30.16R FOG     WCI  12
MARION*        LGT SNOW  23  21  92 SW6       30.18R WCI  15

$$
INZ028>050-152100-
CENTRAL INDIANA

CITY           SKY/WX    TMP DP  RH WIND       PRES   REMARKS
LAFAYETTE      CLOUDY    18  14  84 W16       30.22R WCI   3
KOKOMO*        LGT SNOW  24  22  91 SW14      30.18R FOG     WCI  12
MUNCIE*        CLOUDY    24  20  84 SW7       30.18R FOG     WCI  16
INDIANAPOLIS   LGT SNOW  24  23  96 SW13      30.21R FOG     WCI  12

$$
MIZ043>046-050>051-056>058-064>065-071>073-077>080-152100-
SOUTHWEST LOWER MICHIGAN

CITY           SKY/WX    TMP DP  RH WIND       PRES   REMARKS
BATTLE CREEK   LGT SNOW  20  14  77 SE6       30.16R WCI  12
BENTON HARBOR  LGT SNOW  23  17  78 S6        30.15S VSB 1   WCI  16
COLDWATER*     LGT SNOW  21  17  83 S6        30.16R WCI  14
HILLSDALE*     LGT SNOW  19  14  79 SE7       30.14S WCI  10
HOLLAND        LGT SNOW  20  15  81 E9        30.17R WCI   9
GRAND RAPIDS   LGT SNOW  19  14  81 E12       30.17S WCI   7
KALAMAZOO      LGT SNOW  21  15  78 SE7       30.15S WCI  12
STURGIS*       LGT SNOW  22  18  82 S5        30.14S WCI  16
THREE RIVERS*  LGT SNOW  22  17  81 S5        30.16S WCI  16

$$
OHZ001>008-015>018-024>025-152100-
NORTHWEST OHIO

CITY           SKY/WX    TMP DP  RH WIND       PRES   REMARKS
WAUSEON*       MIX PCPN  21  21 100 SE8       30.18S WCI  12
DEFIANCE       FLURRIES  23  17  78 S7        30.18F WCI  15
FINDLAY        LGT SNOW  23  18  81 S12       30.18S WCI  12
TOLEDO EXPRESS LGT SNOW  22  19  89 VRB5      30.19F FOG     WCI  16
TOLEDO METCALF LGT SNOW  22  18  85 S6        30.21S FOG     WCI  14
LIMA           LGT SNOW  24  20  84 S12       30.16S FOG     WCI  13

$$
AND FOR LAKE MICHIGAN COASTAL AND OPEN LAKE BUOY OBSERVATIONS

STATION/POSITION TEMP    WIND        PRES    VSBY  WAVE
                 AIR SEA DIR/SP/G                  HT/PER
                 (F)     (DEG/KT/KT) (MB)    (MI)  (FT/S)
CALUMET HARBOR    19     230/  9/ 13 1020.6R
MICHIGAN CITY            180/  5/  6   N/A
BURNS HARBOR      21     240/ 14/ 18 1021.7
SAINT JOSEPH      24      CALM  /  4 1021.0

$$
&&




USA.gov is the U.S. government's official web portal to all federal, state and local government web resources and services.